EPKKEPWR

Guest
Details From EPKK - BALICE
To EPWR - STRACHOWICE
Flight Number -
Tags generated
Created
Modified
Stats Distance 127 nm / 235 km
Max Altitude 9,300 ft / 2,835 m
Waypoints 3
Social Downloads 0
Likes 0
Share VATSIM

Download

Looking for another format? Having issues loading an existing format? Contact us
Advertisement - Login to hide

Notes

Basic altitude profile: - Ascent Rate: 2500ft/min - Ascent Speed: 250kts - Cruise Altitude: 18000ft - Cruise Speed: 420kts - Descent Rate: 1500ft/min - Descent Speed: 250kts Options: - Use NATs: yes - Use PACOTS: yes - Use low airways: yes - Use high airways: no

Route

EPKK SABAB EPWR

ID Type Via Altitude (ft/m) Position (lat/lon) Dist (leg/tot) Name
O EPKK APT - 0 / 0 50.07782 / 19.78550 - / 0 nm BALICE
SABAB FIX - 9,300 / 2,835 50.77028 / 17.89917 83 / 83 nm
O EPWR APT - 0 / 0 51.10388 / 16.88189 43 / 126 nm STRACHOWICE

Altitude Profile

Advertisement - Login to hide

EPKK

Details ICAO EPKK (KRK)
Name Saint John Paul II Krakow-Balice
Region Poland
Timezone Europe/Warsaw (UTC+1.0)
Stats Elevation 791 ft / 241 m (AMSL)
Location 50.077800° 19.785500°
Runways 1
Magnetic Variation 5.358° E

METAR

EPKK 230600Z 07006KT 0100 R25/0175N FG VV001 04/03 Q1029

Decode

TAF

TAF EPKK 230530Z 2306/2406 05004KT 1200 BR BKN001 TEMPO 2306/2308 0250 FG NSC BECMG 2308/2311 CAVOK

Decode

Departure Runways

ID Width Length Bearing (true/mag) Surface Threshold Overrun Markings Lighting
07 197 ft / 60 m 8,374 ft / 2,552 m 77.75° / 72.39° CONCRETE 0 ft / 0 m 0 ft / 0 m PREC-APP CENTERLINE EDGE THRESHOLD SALS REIL-OMNI
25 197 ft / 60 m 8,374 ft / 2,552 m 257.77° / 252.42° CONCRETE 778 ft / 237 m 0 ft / 0 m PREC-APP CENTERLINE EDGE THRESHOLD ALSF-I REIL-OMNI

EPWR

Details ICAO EPWR (WRO)
Name Wroclaw-Copernicus Int'l
Region Poland
Timezone Europe/Warsaw (UTC+1.0)
Stats Elevation 403 ft / 123 m (AMSL)
Location 51.103900° 16.881900°
Runways 1
Magnetic Variation 4.774° E

METAR

EPWR 230600Z 13005KT 0800 R29/1000U FG NSC 04/04 Q1028

Decode

TAF

TAF AMD TAF AMD EPWR 230602Z 2306/2406 14004KT 0800 FG NSC BECMG 2306/2307 4000 BR BECMG 2307/2309 CAVOK BECMG 2314/2317 33010KT BECMG 2318/2321 BKN014

Decode

Destination Runways

ID Width Length Bearing (true/mag) Surface Threshold Overrun Markings Lighting
12 148 ft / 45 m 8,220 ft / 2,506 m 115.99° / 111.22° CONCRETE 0 ft / 0 m 108 ft / 33 m PREC-APP EDGE THRESHOLD SALS
30 148 ft / 45 m 8,220 ft / 2,506 m 296.02° / 291.24° CONCRETE 0 ft / 0 m 92 ft / 28 m PREC-APP EDGE THRESHOLD CALVERT

Approach Navaids

Runway Type Ident Frequency Range Bearing (true/mag) Slope Elevation
30 GS WRO 110.30 MHz 10 nm / 19 km 296.01° / 291.24 ° 3.00° 403 ft / 123 m (AMSL)
30 DME WRO 110.30 MHz 18 nm / 33 km - - 394 ft / 120 m (AMSL)
30 OM OM - - 296.00° / 291.23 ° - 404 ft / 123 m (AMSL)
30 LOC-ILS WRO 110.30 MHz 18 nm / 33 km 296.01° / 291.24 ° - 403 ft / 123 m (AMSL)

Popular Alternatives